COSMOS 2251 DEB, 35883

Orbit data source: Space-Track

COSMOS 2251 DEB, 35883 is space debris in LEO originally from a launch on Wed, 16 Jun 1993 UTC launched from the Plesetsk Missile And Space Complex (PKMTR). The debris from Iridium 33, an American commercial communications satellite, has been tracked extensively since its accidental collision with the defunct Russian satellite Cosmos 2251 in 2009. This event, occurring at high speed in low Earth orbit (LEO), generated thousands of pieces of space debris, significantly increasing the risk of further collisions. The Iridium 33 debris cloud has impacted space traffic management and orbital debris mitigation strategies, making it a subject of ongoing study in space situational awareness.

Loading next visibility...
Identifier
35883, 1993-036ATW
Orbit
LEO
Country
Flag of CISCIS
Related business
Manufacturer
Unknown
Mission
Spacecraft
Bus & Motor
Unknown
Mass
Unknown
Launch date (UTC)
1993-06-16 (33 years ago)
Launch vehicle
Unknown
Launch site
Plesetsk Missile And Space Complex (PKMTR)
Object type
Payload
Rocket body
Debris
Shape & HBR
Unknown shape, 0.1 m
Radar Cross Section
Small (<0.1 m²)

Expand to show TLE details & history
Last TLE update: 11 hours ago

TLE from 11 hours ago
0 COSMOS 2251 DEB
1 35883U 93036ATW 26208.13778159  .00000937  00000-0  23372-3 0  9996
2 35883  74.0243   3.9327 0082345  76.3678  41.3010 14.51032319656692
Epoch: 2026-07-27T03:18Z
TLE epoch observation values (Epoch: 2026-07-27T03:18:24.329Z)
Latitude
57.94182°
Longitude
162.46289°
Altitude
687.968 km
Speed
7.541 km/s
True Right ascension
10h 27m 33s
True Declination
57° 47' 07"
Sunlit
Object was in daylight at epoch
Visualization orbit readout
Latitude
Unknown
Longitude
Unknown
Altitude
Unknown
Speed
Unknown
Apparent Right ascension
Unknown
Apparent Declination
Unknown
Sunlit
N/A
Visualization observer readout
Local Sidereal Time
03:52:42
Azimuth
Unknown
Elevation
Unknown
Doppler factor
Unknown
Orbital elements
Apogee altitude
778.336 km
Perigee altitude
661.438 km
Semi-major axis
7,098.024 km
Eccentricity
0.00823
Inclination
74.0243°
RAAN
3.9327°
Arg. of periapsis
76.3678°
True anomaly
41.92863°
Mean anomaly
41.301°
Eccentric anomaly
41.61433°
Mean motion
3.62942 °/min
Orbital period
99.19 mins
BSTAR
0.00023372
Loading maneuver chart data...
Computing Atmospheric mass density...

Documentation

Showing up to 5 results
|